Regional Weather Roundup
Issued by NWS

Home | Current Version | Previous Version | Graphics & Text | Print | Product List | Glossary Off
Versions: 1 2 3 4 5 6 7 8 9 10 11 12 13 14 15 16 17 18 19 20 21 22 23 24 25 26 27 28 29 30 31 32 33 34 35 36 37 38 39 40 41 42 43 44 45 46 47 48 49 50

000
ASUS43 KTOP 281459
RWRKS

WEATHER ROUNDUP FOR KANSAS
NATIONAL WEATHER SERVICE GOODLAND KS
1000 AM CDT FRI APR 28 2017

NOTE:  "FAIR" INDICATES FEW OR NO CLOUDS BELOW 12,000 FEET WITH NO
SIGNIFICANT WEATHER AND/OR OBSTRUCTIONS TO VISIBILITY.

KSZ001>006-013>018-027>032-041>047-281600-
NORTHWEST KANSAS

CITY           SKY/WX    TMP DP  RH WIND       PRES   REMARKS
GOODLAND       CLOUDY    43  39  86 NW15      29.68R
HAYS           MOSUNNY   55  45  68 W16       29.64R
HILL CITY      PTSUNNY   51  45  79 W12       29.64R
RUSSELL        SUNNY     55  45  68 W8        29.63R
$$

KSZ061>065-074>080-084>089-281600-
SOUTHWEST KANSAS

CITY           SKY/WX    TMP DP  RH WIND       PRES   REMARKS
DODGE CITY     SUNNY     54  41  61 NW13      29.67R
ELKHART          N/A     53  42  66 W6          N/A
GARDEN CITY    SUNNY     52  40  63 NW13      29.66R
GREAT BEND     MOSUNNY   55  46  71 W12       29.66R
LIBERAL        SUNNY     54  41  61 NW9       29.68R
$$

KSZ066>073-081>083-090>101-281600-
SOUTHEAST KANSAS

CITY           SKY/WX    TMP DP  RH WIND       PRES   REMARKS
CHANUTE        CLOUDY    60  56  86 SE15G25   29.62R
COFFEYVILLE    CLOUDY    61  57  87 SE10      29.63S
HUTCHINSON     CLOUDY    57  51  80 W8        29.64S
MEDICINE LODGE   N/A     59  51  75 N6        29.65R
NEWTON         CLOUDY    58  53  84 S13       29.65R
PARSONS        CLOUDY    59  56  89 SE8       29.63F
WICHITA INTL   PTSUNNY   60  55  83 S12       29.63F
WICHITA JABRA  CLOUDY    59  54  83 S7        29.64S
WINFIELD       CLOUDY    61  54  77 SW9       29.65R
$$

KSZ007>012-019>026-033>040-048>060-102>105-281600-
NORTHEAST KANSAS

CITY           SKY/WX    TMP DP  RH WIND       PRES   REMARKS
CONCORDIA      CLOUDY    49  49 100 E8        29.64S
EMPORIA        CLOUDY    55  54  96 CALM      29.65R
LAWRENCE       CLOUDY    56  54  93 E8        29.66S
MANHATTAN      CLOUDY    54  54 100 CALM      29.64R
OLATHE IND     CLOUDY    55  53  93 E6        29.66S
OLATHE EXE     CLOUDY    54  54 100 E7        29.65R
SALINA         PTSUNNY   57  52  83 SW6       29.64R
TOPEKA BILLARD CLOUDY    54  54 100 E7        29.65S
TOPEKA FORBES  CLOUDY    56  53  90 E7        29.64S
$$




USA.gov is the U.S. government's official web portal to all federal, state and local government web resources and services.